Theta_e
351 352 353 345 346 344 346 352 354 352 350 352 352 349 343 340 338 337 334 333 333 333 332 333 333 333 334 335 337 338 340 344 345 344 343 345 348 348 349 350 351 351 349 352
346 351 349 347 343 347 347 350 351 354 351 352 351 349 344 340 339 337 337 335 333 332 330 331 333 333 334 336 338 339 340 342 343 342 342 345 347 349 350 350 350 350 351 353
348 346 344 346 344 348 348 349 350 353 349 344 349 349 347 342 339 338 338 338 336 333 332 331 334 335 335 336 338 340 341 342 343 339 344 345 347 349 350 351 350 350 351 353
344 341 342 343 345 347 349 345 349 354 349 350 346 350 348 345 343 342 340 339 339 339 336 333 333 335 337 337 337 338 342 344 342 337 344 345 347 349 351 351 350 351 351 351
344 340 339 342 341 342 342 345 350 348 346 343 348 351 343 346 347 343 340 339 338 338 338 337 334 336 338 339 340 339 340 343 341 340 344 344 346 348 351 351 349 350 350 355
338 333 336 336 342 341 344 345 343 342 342 345 343 346 344 347 348 346 343 340 338 337 337 338 338 337 337 340 341 342 342 342 342 339 344 345 346 349 350 352 352 351 351 352
334 333 336 340 345 343 342 338 347 344 349 350 344 346 344 341 341 344 345 344 340 337 337 337 338 338 339 341 341 342 342 342 342 341 346 347 349 351 349 351 353 352 351 351
334 333 333 337 341 345 342 336 341 340 346 346 347 352 344 340 341 349 345 343 339 338 337 337 338 339 341 341 342 342 342 342 342 341 346 348 348 348 347 349 351 352 350 352
329 330 328 332 337 340 343 343 333 345 344 347 344 342 338 340 351 351 348 345 344 343 339 339 339 339 341 342 343 343 343 342 342 343 344 345 345 345 347 349 350 352 353 353
328 329 328 330 331 334 336 336 338 334 338 339 339 346 344 346 350 353 351 349 349 346 346 346 343 342 342 342 342 343 344 344 344 343 343 344 344 344 346 348 350 352 353 354
321 324 326 327 330 336 337 335 332 333 334 338 340 340 338 341 346 352 351 346 346 346 345 344 343 342 343 345 342 343 343 344 344 344 343 344 345 347 348 349 350 353 353 355
322 324 329 327 325 328 333 333 331 331 334 343 336 341 339 340 340 348 350 347 343 343 342 344 344 343 345 357 357 344 344 344 344 345 345 344 345 347 349 350 351 354 355 357
324 325 327 326 322 327 332 329 323 330 336 344 342 339 339 341 343 341 349 347 343 341 341 341 341 342 353 359 358 355 348 345 346 347 347 348 347 349 350 351 351 353 355 357
326 319 325 327 324 326 333 332 327 336 343 340 340 336 337 339 345 346 349 346 343 341 342 341 345 350 358 358 359 358 355 350 347 349 350 350 351 352 353 353 356 358 358 354
321 324 321 322 323 331 333 333 330 330 338 341 338 338 334 340 347 346 346 343 342 342 342 351 354 353 356 358 359 359 357 357 352 352 353 353 353 355 355 358 359 356 351 351
323 326 327 332 332 333 334 333 333 332 333 339 344 345 335 350 350 348 346 344 343 344 358 357 355 355 355 356 358 358 359 357 353 352 354 355 356 357 359 357 351 351 349 347
326 327 328 331 332 333 335 332 334 338 340 342 344 342 350 355 353 352 352 348 350 358 357 356 354 353 353 355 357 356 357 357 357 357 358 357 356 354 351 352 351 350 351 352
328 326 324 328 328 335 329 338 337 341 346 344 349 349 352 354 353 355 353 354 357 357 355 352 351 350 354 354 356 355 354 352 352 351 351 352 352 350 350 348 349 348 346 345
323 325 330 331 330 331 339 339 341 343 344 344 349 348 346 346 349 349 350 352 353 354 351 350 350 350 353 354 353 353 353 353 353 353 353 353 351 349 348 347 347 346 345 345
322 322 327 331 334 339 334 336 340 342 339 342 347 348 348 350 362 353 348 349 350 350 348 347 348 349 351 353 353 352 351 351 351 351 351 349 347 347 348 348 346 344 344 343
328 328 330 333 334 332 329 337 338 339 338 341 344 347 348 355 352 345 347 347 347 345 346 347 347 346 347 349 350 349 346 348 349 350 349 348 347 347 347 346 345 344 342 342
330 331 331 331 334 335 335 341 337 332 337 339 342 344 346 344 345 347 348 346 342 343 345 345 344 346 346 347 344 347 350 351 351 350 350 348 346 346 345 343 343 344 342 341
330 328 331 330 332 328 334 336 335 333 336 340 339 341 344 347 347 346 346 343 343 343 344 344 344 346 347 347 344 347 350 351 348 349 347 346 345 344 342 341 340 339 341 339
330 326 331 330 332 333 335 336 336 337 339 336 339 342 343 345 345 345 344 344 343 342 342 343 343 345 347 347 343 347 350 349 348 348 347 343 342 342 343 340 340 340 338 337
332 334 335 335 338 338 336 336 336 340 338 340 341 342 341 343 340 343 342 341 340 340 341 342 343 345 346 345 343 347 350 350 347 347 347 346 345 346 346 344 342 343 343 339
332 335 338 341 337 337 337 335 339 342 340 341 342 344 343 342 342 344 341 338 337 339 340 341 343 345 345 345 345 347 348 350 350 348 348 348 348 349 348 346 344 344 344 342
Wind_Speed
2 3 4 10 9 2 2 3 0 4 1 2 4 5 10 11 7 7 8 9 11 13 21 21 29 30 29 28 27 26 26 26 24 20 17 14 14 11 11 12 10 8 6 8
3 4 7 7 6 6 5 2 2 3 1 1 2 1 6 12 13 13 10 11 14 12 8 14 19 22 28 30 26 26 29 26 24 23 20 16 11 9 12 12 11 10 8 8
4 6 4 4 4 7 3 4 2 3 3 2 1 4 5 6 4 7 9 9 9 13 12 8 15 24 25 28 28 28 27 26 24 24 22 16 12 10 11 10 7 10 10 9
6 4 3 5 5 6 2 5 3 7 3 2 4 4 5 7 11 10 13 11 13 12 10 7 13 21 26 31 30 29 26 26 25 25 25 22 18 13 12 11 9 8 9 10
6 2 2 4 5 10 6 7 8 6 5 3 2 1 5 8 11 16 17 15 15 15 13 11 14 25 28 25 25 26 28 27 26 26 25 25 22 17 14 10 9 9 9 10
6 3 3 5 5 6 7 9 7 4 3 3 3 4 4 5 16 15 16 18 19 17 13 10 19 23 22 20 22 23 24 29 27 27 25 26 24 20 17 14 12 9 8 11
6 4 2 4 7 4 4 4 4 5 3 5 5 3 9 6 6 9 17 19 19 18 13 11 9 15 18 19 23 24 25 28 27 28 26 26 24 21 20 17 14 13 11 11
3 6 6 4 4 6 3 4 5 2 3 4 2 5 4 7 4 6 12 10 12 14 12 14 14 18 22 23 23 23 25 28 28 28 30 27 24 24 24 20 17 15 14 12
4 6 3 3 3 8 4 4 3 5 2 2 2 6 7 4 3 3 6 6 6 7 10 12 10 16 20 20 21 23 26 28 31 30 29 29 27 25 25 22 20 18 16 16
5 3 1 2 5 5 3 6 3 2 2 4 4 5 5 3 3 2 3 5 5 7 6 6 6 16 14 13 15 22 27 32 34 32 30 29 28 27 27 24 24 22 19 17
7 4 6 2 4 8 2 1 5 3 3 3 2 7 6 7 6 3 4 6 5 5 7 6 7 10 6 2 5 12 23 27 29 32 33 31 30 27 25 24 24 23 21 19
7 5 5 11 3 2 4 6 5 5 4 2 3 7 4 7 4 5 3 5 5 6 7 6 6 4 8 7 6 5 15 22 25 26 28 32 29 28 25 23 22 20 20 19
9 3 2 9 6 4 3 4 4 4 3 6 5 6 2 3 1 6 6 5 6 6 6 6 4 3 4 6 7 6 11 22 23 23 24 26 29 26 24 20 18 18 18 18
7 4 8 9 7 4 4 5 5 5 3 5 6 4 1 3 5 4 5 5 5 6 8 4 5 4 2 5 7 8 9 12 20 23 24 24 25 22 16 12 11 12 11 7
4 9 5 5 6 4 3 4 7 8 5 6 4 8 8 9 8 6 7 6 8 7 7 5 5 5 2 3 4 6 7 5 9 13 15 16 15 10 5 6 5 2 5 4
2 2 2 3 3 4 5 5 3 7 4 10 4 6 5 3 7 7 8 8 8 6 7 8 6 7 5 6 7 7 8 9 8 6 6 4 3 4 4 3 14 13 16 15
3 6 3 5 2 1 3 6 7 5 5 6 7 6 7 5 8 8 7 8 10 9 8 7 6 7 9 8 8 12 13 15 18 16 14 15 14 13 14 16 18 18 17 13
4 4 2 2 1 2 6 3 4 8 6 8 3 6 5 9 6 6 4 8 10 10 8 7 8 8 7 8 11 14 16 19 21 20 19 20 21 20 18 17 18 16 14 13
4 4 3 5 3 5 3 6 6 6 7 7 7 7 7 6 6 4 5 3 7 7 8 13 14 11 8 8 10 14 16 17 18 16 16 16 18 20 18 17 16 14 12 12
6 4 4 3 4 7 9 3 6 3 5 9 8 13 13 7 6 5 9 8 8 14 19 19 17 16 14 11 11 13 11 13 15 16 15 14 15 18 17 15 13 12 10 13
3 3 5 3 3 7 8 5 5 4 7 6 10 11 16 12 5 8 12 8 13 18 20 20 19 17 14 11 10 11 11 13 13 14 15 15 15 15 13 12 11 10 12 12
7 7 4 2 2 6 7 5 8 7 2 6 8 10 6 6 10 17 14 14 10 12 16 23 20 17 15 12 13 13 13 11 11 12 12 13 13 12 10 10 9 7 7 8
3 7 6 10 8 3 7 2 2 4 4 5 6 7 9 11 7 15 14 13 13 17 18 23 23 20 17 14 14 15 13 12 12 11 12 11 9 8 9 8 7 8 6 4
4 3 4 3 4 5 7 2 4 3 4 6 6 9 9 10 14 11 15 14 12 16 20 24 22 20 20 16 13 13 14 13 11 10 10 8 7 6 6 5 5 4 3 2
5 6 5 4 3 1 4 5 5 3 6 8 7 6 8 13 8 12 10 13 16 19 23 26 24 22 21 17 13 14 14 13 11 10 9 6 4 1 1 1 2 3 3 1
5 6 5 6 8 5 6 12 8 8 7 9 9 8 6 10 14 9 12 16 18 19 23 21 22 23 20 18 14 15 14 12 10 9 7 4 2 3 4 6 5 5 5 2
Wind_Direction
34 72 209 218 220 290 298 333 133 76 2 216 183 164 184 184 197 205 197 216 223 227 233 233 235 236 241 242 249 241 233 232 232 238 243 239 240 240 255 270 268 266 266 258
54 237 233 224 233 240 271 271 60 102 292 114 38 325 201 183 207 204 208 215 220 229 244 243 241 239 241 247 244 235 231 235 229 232 241 237 247 258 275 282 265 250 242 243
191 239 134 201 214 208 218 228 81 110 111 39 30 328 182 204 209 219 220 223 236 222 220 229 231 240 244 239 235 229 229 230 227 228 235 241 249 263 271 287 269 238 233 237
245 273 191 202 241 160 265 224 169 105 80 353 51 277 230 204 213 212 227 219 222 222 224 213 221 236 236 240 238 234 230 226 228 229 235 240 246 251 270 281 285 258 252 245
251 242 272 232 235 163 239 94 98 96 87 74 216 110 268 165 226 228 224 220 229 227 214 207 211 232 241 239 235 232 230 227 228 229 235 239 242 249 267 278 278 270 253 236
241 282 225 205 33 124 96 81 50 60 67 358 171 134 276 186 217 226 226 226 226 230 226 212 224 235 238 235 231 233 229 223 226 232 239 240 241 244 255 269 278 285 255 252
339 270 238 136 88 7 134 57 16 7 14 228 128 87 246 230 214 210 212 218 220 218 214 217 202 211 223 219 225 226 226 224 227 230 234 237 241 246 254 263 271 277 268 270
133 316 193 176 180 164 147 132 145 287 235 271 97 232 249 188 266 256 232 206 212 214 195 199 199 199 206 213 215 219 226 230 234 232 234 237 243 252 254 261 265 271 267 277
178 273 273 164 147 133 194 219 163 98 345 309 233 283 298 259 248 359 62 147 184 207 192 189 196 182 188 200 214 223 229 235 238 241 240 241 244 247 253 256 259 264 266 271
198 299 190 92 80 28 167 145 104 33 249 293 296 278 229 259 119 63 81 111 138 146 157 125 125 143 161 189 216 230 234 237 238 239 246 249 248 249 253 257 258 260 266 265
141 127 282 0 176 173 160 184 66 126 144 180 299 279 215 211 150 177 168 167 176 133 97 97 103 128 129 214 225 229 231 236 241 243 245 248 251 252 255 257 262 264 267 269
193 155 237 243 318 257 169 181 146 132 237 130 147 274 329 238 163 133 138 176 197 116 105 108 92 57 38 359 344 264 234 234 242 246 248 248 250 253 254 258 264 269 272 273
175 192 352 339 347 352 204 187 112 88 75 187 143 264 10 346 153 102 139 170 180 141 129 126 102 20 28 348 336 299 251 236 241 241 246 245 251 253 255 261 270 275 280 282
102 138 167 207 202 159 200 169 145 126 138 171 224 266 239 226 196 130 116 149 160 165 142 147 121 105 93 33 16 351 309 254 236 238 240 247 249 256 263 266 283 284 282 18
125 193 166 223 228 180 231 189 164 184 193 195 248 207 194 201 198 162 150 139 136 134 124 138 119 89 97 59 48 31 19 332 236 230 237 249 260 260 243 275 284 336 77 34
25 205 171 211 321 248 251 214 191 254 236 259 219 247 200 157 110 131 152 145 127 122 99 94 109 124 94 54 52 56 54 65 91 147 184 204 177 165 138 116 94 81 96 106
140 134 114 231 128 250 341 231 213 224 223 171 194 230 152 136 138 154 156 152 137 136 132 134 143 119 91 75 67 70 81 91 89 86 88 100 114 114 104 98 94 90 90 91
132 105 108 156 81 194 239 199 220 238 223 219 184 146 170 146 123 118 110 139 136 139 139 136 112 97 90 94 91 87 83 84 89 90 93 100 105 103 103 95 92 94 92 88
134 130 85 133 188 279 284 217 190 195 249 204 144 134 133 118 74 58 127 140 145 156 148 142 143 131 120 109 100 97 91 93 94 97 99 102 106 105 102 97 96 96 89 83
99 94 112 141 161 195 232 203 134 152 287 177 155 161 146 135 149 217 156 132 138 146 149 153 152 141 129 128 126 115 110 106 104 106 107 106 106 103 100 101 100 92 92 107
122 62 154 175 199 281 244 149 131 124 236 152 168 174 161 174 180 139 137 132 162 156 156 155 151 148 144 138 138 121 121 109 114 113 107 106 106 104 103 102 96 92 101 112
179 144 180 111 140 267 151 85 165 207 204 177 173 180 158 103 129 140 149 150 150 152 157 159 156 152 149 147 147 142 132 133 130 122 115 114 107 104 97 92 97 101 102 111
253 177 179 187 205 238 209 198 210 161 141 201 153 137 132 135 141 149 150 154 166 173 171 168 160 155 159 167 170 156 152 144 138 127 118 116 112 98 84 89 79 78 92 89
244 168 193 130 233 232 205 171 133 139 184 158 144 140 147 147 154 156 157 165 153 176 167 174 163 159 161 172 176 172 157 154 148 135 128 125 121 103 83 70 61 47 66 93
202 138 181 262 282 93 193 225 158 139 134 121 135 143 152 147 154 156 155 162 164 173 173 178 174 168 170 169 177 179 171 169 153 148 139 136 141 137 12 340 339 340 344 19
191 182 168 216 207 170 223 173 150 148 166 160 147 135 136 166 159 156 160 166 165 167 175 176 179 170 174 176 177 182 181 181 170 153 154 161 250 280 281 288 276 297 320 289